"2010-02-11 00:00:00",1670679,2.62,142.8,0.862,0.04,1.847,100.7787,1.286,2.24,37.49,0,109.6,13.59,2.04,104.8
"2010-02-11 00:00:30",1670680,3.63,150.5,6.234,1.225,4.562,100.781,1.292,2.421,37.25,0,109.6,13.56,2.05,112.5
"2010-02-11 00:01:00",1670681,4.727,156.5,3.587,0.678,6.824,100.781,1.292,2.537,36.96,0,109.6,13.56,2.05,118.5
"2010-02-11 00:01:30",1670682,3.962,150.5,5.151,1.197,5.244,100.781,1.292,2.526,36.75,0,109.6,13.56,2.05,112.5
"2010-02-11 00:02:00",1670683,3.513,148,5.85,1.276,3.214,100.781,1.292,2.314,36.85,0,109.6,13.56,2.05,110.0
"2010-02-11 00:02:30",1670684,3.562,149.5,6.705,1.223,3.276,100.7832,1.298,2.412,37.38,0,109.6,13.56,2.05,111.5
"2010-02-11 00:03:00",1670685,2.667,145.8,1.164,0.046,1.581,100.794,1.325,2.329,37.29,0,109.7,13.59,2.08,107.8
"2010-02-11 00:03:30",1670686,4.074,152.9,5.84,1.222,4.246,100.8096,1.365,2.414,37.39,0,109.6,13.56,2.12,114.9
"2010-02-11 00:04:00",1670687,4.496,155,5.623,1.189,5.362,100.8149,1.379,2.592,37.66,0,109.7,13.56,2.14,117.0
"2010-02-11 00:04:30",1670688,5.296,152.4,6.585,0.665,6.315,100.8147,1.378,2.637,38.39,0,109.7,13.56,2.13,114.4
"2010-02-11 00:05:00",1670689,4.776,157.9,5.073,0.989,5.551,100.8149,1.379,2.618,38.68,0,109.6,13.56,2.14,119.9
"2010-02-11 00:05:30",1670690,3.854,154.6,7.502,1.141,3.539,100.8147,1.378,2.505,38.3,0,109.7,13.56,2.13,116.6
"2010-02-11 00:06:00",1670691,2.907,147.5,2.244,0.093,1.509,100.8144,1.377,2.371,37.81,0,109.7,13.59,2.13,109.5
"2010-02-11 00:06:30",1670692,3.092,151.7,3.495,0.739,2.109,100.8149,1.379,2.403,37.92,0,109.7,13.56,2.14,113.7
"2010-02-11 00:07:00",1670693,4.949,158.7,4.937,0.94,6.019,100.8172,1.384,2.61,38.1,0,109.7,13.56,2.14,120.7
"2010-02-11 00:07:30",1670694,4.803,158.3,4.912,0.944,6.448,100.8195,1.39,2.687,38.31,0,109.6,13.56,2.15,120.3
"2010-02-11 00:08:00",1670695,4.687,162.9,5.294,1.013,6.169,100.8231,1.4,2.707,38.44,0,109.6,13.56,2.16,124.9
"2010-02-11 00:08:30",1670696,3.356,162.5,4.591,0.989,3.134,100.8209,1.394,2.533,37.49,0,109.7,13.56,2.15,124.5
"2010-02-11 00:09:00",1670697,3.233,160.6,5.544,0.854,2.549,100.8172,1.384,2.435,36.15,0,109.7,13.56,2.14,122.6
"2010-02-11 00:09:30",1670698,3.764,156.1,6.204,1.196,3.125,100.8152,1.379,2.422,36.24,0,109.6,13.56,2.14,118.1
"2010-02-11 00:10:00",1670699,4.007,157,7.092,1.193,4.867,100.8138,1.376,2.567,37.18,0,109.7,13.56,2.13,119.0
"2010-02-11 00:10:30",1670700,4.833,164.8,4.368,0.67,7.113,100.8132,1.374,2.685,37.52,0,109.7,13.56,2.13,126.8
"2010-02-11 00:11:00",1670701,4.616,164.3,5.428,0.885,6.346,100.8141,1.376,2.713,37.47,0,109.7,13.56,2.13,126.3
"2010-02-11 00:11:30",1670702,4.03,164.8,5.709,1.191,4.557,100.8135,1.375,2.489,36.96,0,109.7,13.55,2.13,126.8
"2010-02-11 00:12:00",1670703,2.555,157.1,1.541,0.049,1.615,100.8127,1.373,2.387,36.42,0,109.7,13.58,2.13,119.1
"2010-02-11 00:12:30",1670704,2.662,152.8,1.533,0.034,1.723,100.8019,1.345,2.435,36.53,0,109.7,13.58,2.10,114.8
"2010-02-11 00:13:00",1670705,4.126,156.5,5.736,1.241,5.231,100.7849,1.302,2.61,37.22,0,109.6,13.55,2.06,118.5
"2010-02-11 00:13:30",1670706,4.455,156.6,6.903,1.134,5.609,100.781,1.292,2.575,37.84,0,109.7,13.55,2.05,118.6
"2010-02-11 00:14:00",1670707,5.386,156.2,4.471,0.565,6.75,100.781,1.292,2.617,38.14,0,109.7,13.55,2.05,118.2
"2010-02-11 00:14:30",1670708,4.521,147.4,6.78,1.248,4.423,100.781,1.292,2.568,38.29,0,109.7,13.55,2.05,109.4
"2010-02-11 00:15:00",1670709,3.868,147.8,4.926,1.072,3.088,100.7739,1.274,2.367,38.26,0,109.6,13.55,2.03,109.8
"2010-02-11 00:15:30",1670710,3.602,148.1,4.322,0.854,2.895,100.7578,1.233,2.459,38.36,0,109.7,13.56,1.99,110.1
"2010-02-11 00:16:00",1670711,5.096,151.2,6.368,1.094,5.686,100.747,1.205,2.534,38.52,0,109.7,13.56,1.96,113.2
"2010-02-11 00:16:30",1670712,5.075,152.7,6.14,1.02,6.382,100.747,1.205,2.531,38.67,0,109.7,13.56,1.96,114.7
"2010-02-11 00:17:00",1670713,4.871,151.3,6.234,1.159,5.893,100.7431,1.195,2.514,38.69,0,109.7,13.56,1.95,113.3
"2010-02-11 00:17:30",1670714,5.006,146.3,5.154,1.12,5.481,100.7278,1.156,2.453,38.56,0,109.7,13.56,1.91,108.3
"2010-02-11 00:18:00",1670715,3.814,135.5,3.975,0.669,2.671,100.7145,1.122,2.354,37.96,0,109.7,13.56,1.88,97.5
"2010-02-11 00:18:30",1670716,4.655,141.1,6.636,1.172,4.523,100.7131,1.119,2.411,37.79,0,109.6,13.56,1.87,103.1
"2010-02-11 00:19:00",1670717,5.266,140.4,5.259,1.179,5.531,100.7114,1.114,2.455,37.7,0,109.6,13.56,1.87,102.4
"2010-02-11 00:19:30",1670718,5.785,140.4,5.57,0.901,6.436,100.6921,1.065,2.414,37.57,0,109.6,13.56,1.82,102.4
"2010-02-11 00:20:00",1670719,5.672,139.6,6.108,1.054,6.195,100.6791,1.032,2.388,37.51,0,109.6,13.56,1.79,101.6
"2010-02-11 00:20:30",1670720,5.465,137.5,5.944,1.165,5.493,100.6791,1.032,2.382,37.37,0,109.6,13.56,1.79,99.5
"2010-02-11 00:21:00",1670721,3.954,127.1,3.608,0.626,2.34,100.6672,1.002,2.186,37.04,0,109.6,13.56,1.76,89.1
"2010-02-11 00:21:30",1670722,5.449,133.7,6.298,1.11,5.457,100.6457,0.947,2.319,37.09,0,109.6,13.56,1.70,95.7
"2010-02-11 00:22:00",1670723,5.242,131.6,6.194,1.156,4.932,100.6452,0.946,2.266,36.95,0,109.6,13.57,1.70,93.6
"2010-02-11 00:22:30",1670724,5.613,134.1,4.93,0.984,6.059,100.6446,0.944,2.362,36.93,0,109.6,13.57,1.70,96.1
"2010-02-11 00:23:00",1670725,4.884,130.8,7.195,1.214,4.642,100.6293,0.905,2.254,36.62,0,109.6,13.57,1.66,92.8
"2010-02-11 00:23:30",1670726,5.139,129.4,6.927,1.093,5.271,100.6138,0.865,2.225,36.63,0,109.6,13.57,1.62,91.4
"2010-02-11 00:24:00",1670727,4.126,123.2,5.305,0.981,3.017,100.6112,0.859,2.08,36.16,0,109.6,13.57,1.61,85.2
"2010-02-11 00:24:30",1670728,5.25,129.9,6.199,1.077,5.235,100.6064,0.847,2.214,36.19,0,109.6,13.57,1.60,91.9
"2010-02-11 00:25:00",1670729,4.137,127.4,4.91,1.117,3.748,100.5869,0.797,2.117,36.27,0,109.6,13.57,1.55,89.4
"2010-02-11 00:25:30",1670730,5.555,138.2,4.016,0.7,6.645,100.5772,0.772,2.234,36.62,0,109.6,13.57,1.53,100.2
"2010-02-11 00:26:00",1670731,4.937,137.8,5.782,1.059,5.608,100.5772,0.772,2.133,36.75,0,109.6,13.57,1.53,99.8
"2010-02-11 00:26:30",1670732,4.92,138.6,4.884,1.024,5.379,100.5767,0.771,2.023,36.81,0,109.6,13.57,1.53,100.6
"2010-02-11 00:27:00",1670733,3.405,126.3,4.503,0.814,2.674,100.562,0.733,1.962,36.88,0,109.6,13.57,1.49,88.3
"2010-02-11 00:27:30",1670734,4.721,133.7,5.254,1.112,5.242,100.5507,0.705,2.08,37.03,0,109.6,13.57,1.46,95.7
"2010-02-11 00:28:00",1670735,3.761,130.6,7.157,1.109,3.965,100.5447,0.689,1.966,37.12,0,109.6,13.57,1.44,92.6
"2010-02-11 00:28:30",1670736,4.821,142.9,4.067,0.989,6.3,100.5444,0.689,2.099,37.39,0,109.6,13.57,1.44,104.9
"2010-02-11 00:29:00",1670737,4.507,145.4,5.867,1.053,5.655,100.5444,0.689,2.034,37.59,0,109.6,13.56,1.44,107.4
"2010-02-11 00:29:30",1670738,2.841,139.9,4.141,0.648,2.673,100.5385,0.674,1.933,37.76,0,109.6,13.57,1.43,101.9
"2010-02-11 00:30:00",1670739,3.489,149.2,4.583,1.203,3.973,100.5235,0.635,1.811,37.81,0,109.6,13.57,1.39,111.2
"2010-02-11 00:30:30",1670740,3.963,161.3,7.669,1.262,5.335,100.5204,0.627,1.991,38.12,0,109.6,13.57,1.38,123.3
"2010-02-11 00:31:00",1670741,3.313,160.3,4.717,0.982,3.407,100.5213,0.63,1.805,38.1,0,109.6,13.57,1.38,122.3
"2010-02-11 00:31:30",1670742,4.508,169.8,4.723,1.09,6.233,100.5264,0.643,1.986,38.5,0,109.6,13.57,1.40,131.8
"2010-02-11 00:32:00",1670743,4.551,166.7,5.584,1.082,6.19,100.5281,0.647,1.92,38.48,0,109.6,13.57,1.40,128.7
"2010-02-11 00:32:30",1670744,3.375,159.4,5.193,1.051,3.648,100.5293,0.65,1.87,38.42,0,109.6,13.57,1.40,121.4
"2010-02-11 00:33:00",1670745,3.585,159.4,5.64,1.146,3.859,100.5307,0.654,1.84,38.41,0,109.6,13.58,1.41,121.4
"2010-02-11 00:33:30",1670746,3.377,153.4,5.223,1.12,3.17,100.5347,0.664,1.709,38.31,0,109.6,13.58,1.42,115.4
"2010-02-11 00:34:00",1670747,2.867,153.8,6.13,0.931,3.411,100.5366,0.669,1.874,38.48,0,109.6,13.58,1.42,115.8
"2010-02-11 00:34:30",1670748,4.797,163.5,3.641,0.75,6.463,100.5349,0.664,1.921,38.55,0,109.6,13.58,1.42,125.5
"2010-02-11 00:35:00",1670749,4.288,163.9,6.202,1.196,5.881,100.5358,0.667,1.946,38.52,0,109.6,13.58,1.42,125.9
"2010-02-11 00:35:30",1670750,3.852,162.1,6.794,1.185,5.266,100.5344,0.663,1.965,38.53,0,109.6,13.58,1.42,124.1
"2010-02-11 00:36:00",1670751,3.791,162.3,5.811,1.208,4.081,100.5372,0.67,1.753,38.39,0,109.6,13.58,1.42,124.3
"2010-02-11 00:36:30",1670752,4.016,161.2,6.251,1.178,4.498,100.5352,0.665,1.81,38.57,0,109.6,13.58,1.42,123.2
"2010-02-11 00:37:00",1670753,2.598,155.3,1.473,0.08,2.589,100.5335,0.661,1.797,38.51,0,109.6,13.58,1.42,117.3
"2010-02-11 00:37:30",1670754,4.732,166.6,4.917,0.881,6.894,100.5347,0.664,1.927,38.7,0,109.6,13.58,1.42,128.6
"2010-02-11 00:38:00",1670755,4.44,164.1,5.702,1.068,6.34,100.5316,0.656,1.921,38.84,0,109.6,13.58,1.41,126.1
"2010-02-11 00:38:30",1670756,4.213,163.1,5.267,1.11,5.49,100.5319,0.657,1.825,38.72,0,109.6,13.58,1.41,125.1
"2010-02-11 00:39:00",1670757,3.285,160.6,5.858,1.124,3.901,100.533,0.66,1.821,38.63,0,109.6,13.58,1.41,122.6
"2010-02-11 00:39:30",1670758,2.68,154.6,4.491,0.806,2.133,100.5338,0.662,1.674,38.48,0,109.6,13.58,1.42,116.6
"2010-02-11 00:40:00",1670759,2.779,151.7,4.087,0.862,2.384,100.5364,0.668,1.733,38.51,0,109.6,13.58,1.42,113.7
"2010-02-11 00:40:30",1670760,3.836,159,6.387,1.196,5.358,100.5333,0.66,1.899,38.71,0,109.6,13.59,1.41,121.0
"2010-02-11 00:41:00",1670761,4.643,162.5,5.812,0.941,6.859,100.5347,0.664,1.891,38.69,0,109.6,13.59,1.42,124.5
"2010-02-11 00:41:30",1670762,4.274,162.3,5.898,1.094,6.173,100.537,0.67,1.957,38.75,0,109.6,13.59,1.42,124.3
"2010-02-11 00:42:00",1670763,3.018,159,4.027,0.89,3.058,100.5355,0.666,1.786,38.62,0,109.6,13.59,1.42,121.0
"2010-02-11 00:42:30",1670764,3.669,160.1,6.697,1.2,3.872,100.5353,0.665,1.714,38.7,0,109.6,13.59,1.42,122.1
"2010-02-11 00:43:00",1670765,3.809,158.6,6.364,1.225,4.282,100.5358,0.667,1.761,38.66,0,109.6,13.59,1.42,120.6
"2010-02-11 00:43:30",1670766,3.847,157.9,6.551,1.227,5.071,100.5341,0.662,1.834,38.62,0,109.6,13.59,1.42,119.9
"2010-02-11 00:44:00",1670767,4.599,162.5,4.899,0.899,7.011,100.5327,0.659,1.952,38.74,0,109.6,13.59,1.41,124.5
"2010-02-11 00:44:30",1670768,4.261,157.5,4.771,1.093,5.767,100.5324,0.658,1.883,38.7,0,109.6,13.59,1.41,119.5
"2010-02-11 00:45:00",1670769,3.865,152.7,6.895,1.224,4.435,100.5361,0.667,1.782,38.49,0,109.6,13.59,1.42,114.7
"2010-02-11 00:45:30",1670770,3.155,152.6,5.44,1.014,3.337,100.5358,0.667,1.798,38.49,0,109.6,13.59,1.42,114.6
"2010-02-11 00:46:00",1670771,3.285,153.6,5.907,1.163,3.761,100.5372,0.67,1.846,38.49,0,109.6,13.59,1.42,115.6
"2010-02-11 00:46:30",1670772,3.958,156.6,6.244,1.22,4.982,100.5381,0.673,1.845,38.56,0,109.6,13.59,1.43,118.6
"2010-02-11 00:47:00",1670773,4.165,158.1,5.547,1.142,6.147,100.5372,0.67,1.915,38.64,0,109.6,13.59,1.42,120.1
"2010-02-11 00:47:30",1670774,4.125,159.5,5.293,1.125,6.302,100.5364,0.668,1.888,38.63,0,109.6,13.59,1.42,121.5
"2010-02-11 00:48:00",1670775,3.876,157.6,5.741,1.16,5.381,100.5375,0.671,1.906,38.65,0,109.6,13.59,1.43,119.6
"2010-02-11 00:48:30",1670776,2.165,151.5,1.315,0.053,2.305,100.5387,0.674,1.778,38.55,0,109.6,13.62,1.43,113.5
"2010-02-11 00:49:00",1670777,2.154,149.4,2.191,0.054,2.062,100.5401,0.678,1.752,38.45,0,109.6,13.62,1.43,111.4
"2010-02-11 00:49:30",1670778,3.833,162.2,6.531,1.204,5.851,100.5412,0.68,1.881,38.31,0,109.6,13.6,1.43,124.2
"2010-02-11 00:50:00",1670779,4.055,158.3,6.357,1.084,6.097,100.5421,0.683,1.923,38.04,0,109.6,13.6,1.44,120.3
"2010-02-11 00:50:30",1670780,4.117,168.2,5.343,1.081,6.524,100.5421,0.683,1.873,37.87,0,109.6,13.6,1.44,130.2
"2010-02-11 00:51:00",1670781,3.616,169.4,6.683,1.186,5.5,100.5409,0.68,1.961,37.1,0,109.6,13.6,1.43,131.4
"2010-02-11 00:51:30",1670782,3.183,166.7,5.577,1.124,3.799,100.5435,0.686,1.732,36.23,0,109.6,13.6,1.44,128.7
"2010-02-11 00:52:00",1670783,2.373,161.6,0.492,0.024,2.22,100.5432,0.686,1.717,35.85,0,109.6,13.63,1.44,123.6
"2010-02-11 00:52:30",1670784,3.771,168.3,5.486,1.199,5.202,100.5435,0.686,1.891,36.03,0,109.6,13.6,1.44,130.3
"2010-02-11 00:53:00",1670785,3.75,164.6,7.512,1.132,5.812,100.5435,0.686,1.955,36.29,0,109.6,13.6,1.44,126.6
"2010-02-11 00:53:30",1670786,3.928,163,7.996,1.178,6.403,100.5435,0.686,1.965,36.72,0,109.6,13.6,1.44,125.0
"2010-02-11 00:54:00",1670787,4.21,152.8,5.704,1.144,5.572,100.5435,0.686,1.943,37.06,0,109.6,13.6,1.44,114.8
"2010-02-11 00:54:30",1670788,3.749,146,6.665,1.236,4.062,100.5435,0.686,1.823,37.16,0,109.6,13.6,1.44,108.0
"2010-02-11 00:55:00",1670789,2.648,135.1,1.933,0.15,1.637,100.5435,0.686,1.718,37.17,0,109.6,13.63,1.44,97.1
"2010-02-11 00:55:30",1670790,4.04,141.1,6.569,1.268,3.99,100.5435,0.686,1.879,37.3,0,109.6,13.6,1.44,103.1
"2010-02-11 00:56:00",1670791,4.887,143.7,6.503,1.086,5.998,100.5435,0.686,1.929,37.31,0,109.6,13.6,1.44,105.7
"2010-02-11 00:56:30",1670792,5.363,141.3,3.519,0.875,6.776,100.5435,0.686,2.04,37.32,0,109.6,13.6,1.44,103.3
"2010-02-11 00:57:00",1670793,4.838,137.2,5.369,1.161,5.81,100.5435,0.686,1.967,36.93,0,109.6,13.6,1.44,99.2
"2010-02-11 00:57:30",1670794,4.571,136.9,5.631,1.212,4.617,100.5435,0.686,1.854,36.85,0,109.6,13.6,1.44,98.9
"2010-02-11 00:58:00",1670795,3.752,136,5.503,1.106,3.082,100.5438,0.687,1.742,36.88,0,109.6,13.6,1.44,98.0
"2010-02-11 00:58:30",1670796,4.438,137.2,6.472,1.166,4.696,100.5438,0.687,1.909,37.09,0,109.6,13.6,1.44,99.2
"2010-02-11 00:59:00",1670797,4.957,140,4.582,1.113,6.21,100.5446,0.689,1.971,37.14,0,109.6,13.6,1.44,102.0
"2010-02-11 00:59:30",1670798,5.471,141.6,4.72,0.653,7.05,100.5449,0.69,2.037,37.13,0,109.6,13.6,1.44,103.6
"2010-02-11 01:00:00",1670799,4.982,139.9,5.56,1.141,6.174,100.5458,0.692,1.961,36.86,0,109.6,13.6,1.45,101.9
"2010-02-11 01:00:30",1670800,4.326,133.3,5.394,1.152,3.613,100.5483,0.699,1.82,36.3,0,109.6,13.6,1.45,95.3
"2010-02-11 01:01:00",1670801,3.607,130.7,3.366,0.541,2.709,100.5489,0.7,1.869,35.9,0,109.6,13.6,1.45,92.7
"2010-02-11 01:01:30",1670802,5.395,138.4,5.449,1.063,6.131,100.5469,0.695,1.925,35.45,0,109.6,13.59,1.45,100.4
"2010-02-11 01:02:00",1670803,5.266,137.3,5.888,1.096,6.261,100.5483,0.699,1.95,35.11,0,109.6,13.6,1.45,99.3
"2010-02-11 01:02:30",1670804,5.419,139.2,2.801,0.764,7.026,100.548,0.698,2.043,34.98,0,109.6,13.6,1.45,101.2
"2010-02-11 01:03:00",1670805,4.692,138.6,5.645,1.22,5.933,100.5492,0.701,1.93,34.92,0,109.6,13.59,1.46,100.6
"2010-02-11 01:03:30",1670806,3.334,128.6,4.368,0.925,2.897,100.5509,0.705,1.807,34.55,0,109.6,13.59,1.46,90.6
"2010-02-11 01:04:00",1670807,3.446,130.9,4.496,1.009,2.655,100.5489,0.7,1.741,33.93,0,109.6,13.59,1.45,92.9
"2010-02-11 01:04:30",1670808,4.215,136.8,6.328,1.221,4.736,100.55,0.703,1.967,33.83,0,109.6,13.6,1.46,98.8
"2010-02-11 01:05:00",1670809,4.794,140.3,5.311,1.121,6.124,100.5466,0.694,1.912,33.49,0,109.6,13.6,1.45,102.3
"2010-02-11 01:05:30",1670810,5.266,142.2,3.946,0.652,7.098,100.5427,0.684,2.025,33.76,0,109.6,13.6,1.44,104.2
"2010-02-11 01:06:00",1670811,4.663,139.1,5.92,1.114,5.505,100.5436,0.686,1.953,33.6,0,109.6,13.6,1.44,101.1
"2010-02-11 01:06:30",1670812,3.713,133.7,5.534,1.067,3.188,100.5393,0.676,1.783,33.42,0,109.6,13.6,1.43,95.7
"2010-02-11 01:07:00",1670813,3.97,132.5,6.305,1.231,3.764,100.5402,0.678,1.818,33.27,0,109.6,13.6,1.43,94.5
"2010-02-11 01:07:30",1670814,4.17,132.5,5.848,1.222,4.874,100.5373,0.671,1.913,33.21,0,109.6,13.6,1.42,94.5
"2010-02-11 01:08:00",1670815,4.336,131.9,6.051,1.219,5.473,100.5351,0.665,1.966,33.23,0,109.6,13.61,1.42,93.9
"2010-02-11 01:08:30",1670816,5.21,136.1,3.959,0.709,7.068,100.5337,0.661,2.013,33.29,0,109.6,13.61,1.42,98.1
"2010-02-11 01:09:00",1670817,4.992,134.1,5.038,0.987,6.172,100.5323,0.658,1.95,33.21,0,109.6,13.6,1.41,96.1
"2010-02-11 01:09:30",1670818,3.204,123.2,0.525,0.078,2.149,100.5291,0.65,1.8,33.07,0,109.6,13.64,1.40,85.2
"2010-02-11 01:10:00",1670819,4.238,126,7.12,1.243,3.867,100.5309,0.654,1.78,33.06,0,109.6,13.6,1.41,88.0
"2010-02-11 01:10:30",1670820,4.582,127.2,6.121,1.251,5.46,100.5328,0.659,1.934,33.14,0,109.6,13.61,1.41,89.2
"2010-02-11 01:11:00",1670821,4.683,127.5,6.161,1.232,5.972,100.534,0.662,2.009,33.27,0,109.6,13.61,1.42,89.5
"2010-02-11 01:11:30",1670822,5.493,128.4,5.355,0.872,6.907,100.5357,0.666,1.954,33.52,0,109.6,13.61,1.42,90.4
"2010-02-11 01:12:00",1670823,5.375,129.3,4.496,0.923,6.456,100.5357,0.666,1.921,33.93,0,109.6,13.61,1.42,91.3
"2010-02-11 01:12:30",1670824,4.036,123.8,5.516,1.088,3.301,100.5354,0.666,1.807,34.03,0,109.6,13.61,1.42,85.8
"2010-02-11 01:13:00",1670825,4.365,126.6,6.728,1.192,4.076,100.5377,0.671,1.819,33.92,0,109.6,13.61,1.43,88.6
"2010-02-11 01:13:30",1670826,3.757,127.8,5.975,1.024,3.508,100.5399,0.677,1.838,33.85,0,109.6,13.61,1.43,89.8
"2010-02-11 01:14:00",1670827,4.191,132.8,6.738,1.202,5.435,100.5447,0.689,1.924,33.93,0,109.6,13.61,1.44,94.8
"2010-02-11 01:14:30",1670828,4.832,137,4.863,0.991,6.693,100.5504,0.704,1.968,34.21,0,109.6,13.61,1.46,99.0
"2010-02-11 01:15:00",1670829,4.736,132.4,7.449,1.045,5.708,100.5547,0.715,1.982,34.21,0,109.6,13.61,1.47,94.4
"2010-02-11 01:15:30",1670830,4.834,127.9,6.017,1.176,5.476,100.5615,0.732,1.868,34.06,0,109.6,13.61,1.49,89.9
"2010-02-11 01:16:00",1670831,3.535,122.4,5.791,0.925,3.11,100.5674,0.747,1.868,34.04,0,109.6,13.61,1.50,84.4
"2010-02-11 01:16:30",1670832,3.605,125.8,3.629,1.248,3.419,100.5714,0.757,1.78,34.1,0,109.6,13.6,1.51,87.8
"2010-02-11 01:17:00",1670833,3.752,129.7,7.003,1.096,4.874,100.5725,0.76,1.933,34.55,0,109.6,13.61,1.51,91.7
"2010-02-11 01:17:30",1670834,4.898,139.5,3.561,0.797,6.871,100.5714,0.757,2.034,34.49,0,109.6,13.6,1.51,101.5
"2010-02-11 01:18:00",1670835,4.863,138.9,5.197,0.859,6.691,100.5734,0.762,1.958,34.41,0,109.6,13.6,1.52,100.9
"2010-02-11 01:18:30",1670836,4.026,133,5.99,1.199,4.76,100.5739,0.764,1.969,34.37,0,109.6,13.6,1.52,95.0
"2010-02-11 01:19:00",1670837,3.284,127,4.634,0.849,3.03,100.5765,0.77,1.823,34.13,0,109.6,13.6,1.53,89.0
"2010-02-11 01:19:30",1670838,3.869,132.2,6.239,1.22,4.145,100.5765,0.77,1.796,34.03,0,109.6,13.6,1.53,94.2
"2010-02-11 01:20:00",1670839,4.07,135.1,6.188,1.199,4.933,100.5762,0.77,1.85,34.07,0,109.6,13.6,1.52,97.1
"2010-02-11 01:20:30",1670840,4.89,140.8,3.85,0.788,7.11,100.5756,0.768,2.047,34.27,0,109.6,13.6,1.52,102.8
"2010-02-11 01:21:00",1670841,4.598,139.8,5.614,0.997,6.316,100.5765,0.77,2.003,34.23,0,109.6,13.61,1.53,101.8
"2010-02-11 01:21:30",1670842,3.212,134,4.802,1.057,3.324,100.5768,0.771,1.857,34.11,0,109.6,13.61,1.53,96.0
"2010-02-11 01:22:00",1670843,3.435,134.6,7.277,1.245,4.002,100.5771,0.772,1.891,34.24,0,109.6,13.61,1.53,96.6
"2010-02-11 01:22:30",1670844,2.714,135.3,5.526,0.858,3.173,100.5774,0.773,1.902,34.16,0,109.6,13.61,1.53,97.3
"2010-02-11 01:23:00",1670845,3.627,141.8,6.865,1.191,5.252,100.5771,0.772,1.825,34.1,0,109.6,13.61,1.53,103.8
"2010-02-11 01:23:30",1670846,4.106,145.4,6.341,0.954,6.881,100.5762,0.77,2.056,34.41,0,109.6,13.61,1.52,107.4
"2010-02-11 01:24:00",1670847,4.145,150.6,5.374,0.956,6.772,100.5774,0.773,2.076,34.41,0,109.6,13.61,1.53,112.6
"2010-02-11 01:24:30",1670848,2.588,141.8,6.758,0.892,3.151,100.5774,0.773,1.864,34.13,0,109.6,13.61,1.53,103.8
"2010-02-11 01:25:00",1670849,3.231,148.8,6.352,1.212,3.819,100.5776,0.773,1.912,34.24,0,109.6,13.61,1.53,110.8
"2010-02-11 01:25:30",1670850,3.202,147.5,5.383,1.171,4.066,100.5776,0.773,1.885,34.22,0,109.6,13.61,1.53,109.5
"2010-02-11 01:26:00",1670851,2.199,143.4,1.003,0.084,2.502,100.5776,0.773,1.765,33.99,0,109.6,13.62,1.53,105.4
"2010-02-11 01:26:30",1670852,3.95,152.8,6.085,1.163,6.323,100.5774,0.773,2.066,34.23,0,109.6,13.62,1.53,114.8
"2010-02-11 01:27:00",1670853,4.261,159.3,5.105,1.03,6.623,100.5776,0.773,2.008,34.21,0,109.6,13.62,1.53,121.3
"2010-02-11 01:27:30",1670854,4.394,160.2,6.585,1.042,5.751,100.5768,0.771,1.925,34.04,0,109.6,13.61,1.53,122.2
"2010-02-11 01:28:00",1670855,3.041,150.5,5.423,0.907,3.219,100.5742,0.765,1.897,33.98,0,109.6,13.61,1.52,112.5
"2010-02-11 01:28:30",1670856,3.194,148.8,6.787,1.018,2.774,100.5734,0.763,1.817,33.83,0,109.6,13.61,1.52,110.8
"2010-02-11 01:29:00",1670857,2.626,146,3.154,0.269,2.602,100.5691,0.752,1.772,33.74,0,109.6,13.65,1.51,108.0
"2010-02-11 01:29:30",1670858,4.168,159.2,5.941,1.158,5.873,100.5646,0.74,1.951,33.97,0,109.6,13.62,1.49,121.2
"2010-02-11 01:30:00",1670859,4.615,159.6,5.23,0.941,6.752,100.5612,0.731,2.014,34.04,0,109.6,13.62,1.49,121.6
"2010-02-11 01:30:30",1670860,4.564,160.4,6.089,0.898,6.405,100.5607,0.73,2.004,34.03,0,109.6,13.62,1.48,122.4
"2010-02-11 01:31:00",1670861,3.582,161,8.81,1.22,4.34,100.5609,0.731,1.833,33.91,0,109.6,13.62,1.49,123.0
"2010-02-11 01:31:30",1670862,3.347,161.8,8.27,1.193,3.841,100.5598,0.728,1.874,34.02,0,109.6,13.61,1.48,123.8
"2010-02-11 01:32:00",1670863,2.304,155.3,5.856,0.065,2.019,100.5581,0.724,1.754,33.94,0,109.6,13.65,1.48,117.3
"2010-02-11 01:32:30",1670864,2.932,158.5,6.583,1.079,3.764,100.5547,0.715,1.811,34.05,0,109.5,13.62,1.47,120.5
"2010-02-11 01:33:00",1670865,4.637,158.5,7.835,0.686,7.088,100.5527,0.71,2.052,34.43,0,109.6,13.61,1.46,120.5
"2010-02-11 01:33:30",1670866,4.715,155.6,5.07,0.797,7.19,100.5524,0.709,2.028,34.46,0,109.6,13.61,1.46,117.6
"2010-02-11 01:34:00",1670867,3.779,149.8,5.823,1.291,5.216,100.5516,0.707,1.937,34.42,0,109.6,13.61,1.46,111.8
"2010-02-11 01:34:30",1670868,3.397,146.3,6.403,1.155,3.835,100.5482,0.698,1.823,34.3,0,109.6,13.61,1.45,108.3
"2010-02-11 01:35:00",1670869,2.655,138,5.673,0.144,1.928,100.5544,0.714,1.75,34.11,0,109.6,13.64,1.47,100.0
"2010-02-11 01:35:30",1670870,3.78,143.6,6.749,1.179,4.095,100.5615,0.732,1.87,34.18,0,109.6,13.61,1.49,105.6
"2010-02-11 01:36:00",1670871,4.769,143.7,5.349,1.1,6.422,100.5677,0.748,1.987,34.35,0,109.6,13.61,1.50,105.7
"2010-02-11 01:36:30",1670872,5.043,146.2,5.199,0.647,7.313,100.5686,0.75,2.075,34.68,0,109.6,13.61,1.50,108.2
"2010-02-11 01:37:00",1670873,4.986,148.6,4.054,0.704,6.861,100.568,0.749,2.047,34.63,0,109.5,13.61,1.50,110.6
"2010-02-11 01:37:30",1670874,3.413,140,6.739,1.145,3.005,100.568,0.749,1.757,34.26,0,109.6,13.61,1.50,102.0
"2010-02-11 01:38:00",1670875,2.546,133.4,1.138,0.049,1.86,100.5658,0.743,1.771,34.55,0,109.6,13.65,1.50,95.4
"2010-02-11 01:38:30",1670876,3.424,137.5,8.59,1.222,3.929,100.5629,0.736,1.866,34.94,0,109.6,13.62,1.49,99.5
"2010-02-11 01:39:00",1670877,4.028,126.7,5.671,1.115,5.068,100.5618,0.733,2.015,35.41,0,109.6,13.62,1.49,88.7
"2010-02-11 01:39:30",1670878,4.132,131.4,5.243,0.963,6.072,100.5598,0.728,2.012,35.82,0,109.6,13.62,1.48,93.4
"2010-02-11 01:40:00",1670879,3.884,136.1,6.326,1.076,5.251,100.5538,0.713,2.021,35.92,0,109.5,13.62,1.47,98.1
"2010-02-11 01:40:30",1670880,3.518,140.4,6.311,1.241,4.771,100.5485,0.699,1.933,35.8,0,109.5,13.62,1.45,102.4
"2010-02-11 01:41:00",1670881,2.2,130.5,4.732,0.097,1.625,100.5437,0.687,1.749,35.48,0,109.6,13.65,1.44,92.5
"2010-02-11 01:41:30",1670882,3.341,128.2,6.132,1.301,3.306,100.5439,0.687,1.889,35.81,0,109.5,13.62,1.44,90.2
"2010-02-11 01:42:00",1670883,4.157,121,4.905,1.238,4.61,100.5437,0.687,1.924,36.12,0,109.5,13.62,1.44,83.0
"2010-02-11 01:42:30",1670884,4.572,111.1,5.057,1.054,4.938,100.5437,0.687,1.937,36.38,0,109.6,13.63,1.44,73.1
"2010-02-11 01:43:00",1670885,4.338,104.6,11.43,1.237,4.601,100.5397,0.677,1.994,37.55,0,109.5,13.63,1.43,66.6
"2010-02-11 01:43:30",1670886,3.63,78.04,15.73,1.135,3.001,100.5142,0.612,1.894,39.33,0,109.5,13.62,1.37,40.0
"2010-02-11 01:44:00",1670887,2.466,58.32,4.007,0.68,0.802,100.5097,0.6,1.766,39.94,0,109.5,13.63,1.35,20.3
"2010-02-11 01:44:30",1670888,2.89,50.69,7.828,1.202,1.642,100.5097,0.6,1.705,41.38,0,109.6,13.62,1.35,12.7
"2010-02-11 01:45:00",1670889,3.381,45.5,7.732,1.095,3.452,100.4998,0.575,1.832,42.39,0,109.5,13.63,1.33,7.5
"2010-02-11 01:45:30",1670890,2.614,39.89,8.1,1.177,2.473,100.4808,0.526,1.873,43.53,0,109.5,13.63,1.28,1.9
"2010-02-11 01:46:00",1670891,3.52,46.41,6.223,1.118,3.256,100.4757,0.513,1.823,44.5,0,109.5,13.63,1.27,8.4
"2010-02-11 01:46:30",1670892,3.626,49.85,7.565,1.13,2.847,100.4601,0.474,1.772,44.75,0,109.5,13.63,1.23,11.8
"2010-02-11 01:47:00",1670893,1.766,45.51,1.86,0.244,-0.26,100.4417,0.427,1.641,44.73,0,109.5,13.63,1.18,7.5
"2010-02-11 01:47:30",1670894,2.513,58.63,7.158,1.181,1.64,100.4352,0.41,1.631,44.53,0,109.5,13.63,1.16,20.6
"2010-02-11 01:48:00",1670895,3.195,96.7,10.57,1.283,3.454,100.412,0.351,1.745,43.67,0,109.5,13.63,1.10,58.7